Zurück zum Katalog

NINGXIA-1 5

AktivWissenschaftLEO
NORAD 44783·PAYLOAD·🇨🇳 China

Gestartet Nov 13, 2019 von Taiyuan Satellite Launch Center

Loading…

Nächste Überflüge (nächste 24 Stunden)

TLE

AktuellSource: Space-Track

Epoche: Sep 14, 2026, 14:52 UTC

1 44783U 19076E   26257.62013851  .00000042  00000-0  11130-3 0  9992
2 44783  45.0051 139.4993 0010767 213.7970 146.2179 14.02095497350325

Verfolge NINGXIA-1 5 in Echtzeit mit AllMySat

Download on the App Store